User: anonymous   Login
Location: Vancouver
(49.2500°N, 123.1330°W)
Time: 00:23:40
(UTC-07:00)
Language:

AO-27 - Orbit

View from above orbital plane
View from above orbital plane
View from above satellite
View from above satellite

Ground track
Ground track

The orbit data is extracted from the following two-line orbital elements,

1 22825U 93061C   17083.87877226 +.00000010 +00000-0 +21375-4 0  9997
2 22825 098.8024 048.4693 0007733 211.6407 148.4311 14.29989739225087
Epoch (UTC): 24 March 2017 21:05:25
Eccentricity: 0.0007733
inclination: 98.8024°
perigee height: 786 km
apogee height: 797 km
right ascension of ascending node: 48.4693°
argument of perigee: 211.6407°
revolutions per day: 14.29989739
mean anomaly at epoch: 148.4311°
orbit number at epoch: 22508

The dashed part of the orbit path shows where the satellite is in the earth's shadow,  

DLR